Flag for Canada

Past Weather in Alert, Nunavut, Canada — Yesterday and Last 2 Weeks

Now
50 °F

Passing clouds.


Feels Like: 45 °F
Forecast: 45 / 37 °F
Wind: 13 mph from Southwest

Location: Alert Airport

Current Time: Jul 15, 2020 at 6:40:29 am

Latest Report: Jul 15, 2020 at 6:00 am


Visibility: 15 mi

Pressure: 29.85 "Hg

Humidity: 67%

Dew Point: 39 °F

Location of AlertLocation

Past Weather in Alert — Graph

°F

Alert Temperature Yesterday

Maximum temperature yesterday: 36 °F (at 11:00 am)
Minimum temperature yesterday: 32 °F (at 4:00 am)
Average temperature yesterday: 33 °F

High & Low Weather Summary for the Past Weeks

 TemperatureHumidityPressure
High63 °F (Jun 30, 9:00 am)100% (Jul 2, 2:00 pm)30.14 "Hg (Jul 2, 2:00 pm)
Low30 °F (Jul 6, 7:00 am)37% (Jun 30, 9:00 am)29.73 "Hg (Jul 10, 11:00 am)
Average34 °F93%29.99 "Hg
* Reported Jun 30 8:00 am — Jul 15 5:00 am, Alert. Weather by CustomWeather, © 2020

Note: Actual official high and low records may vary slightly from our data, if they occured in-between our weather recording intervals... More about our weather records

Alert Weather History for the Previous 24 Hours

Scroll right to see more
 ConditionsComfort  
Time TempWeatherWind HumidityBarometerVisibility
5:00 am
Wed, Jul 15
45 °FPassing clouds.13 mph76%29.86 "Hg15 mi
4:00 am32 °FPassing clouds.2 mph93%29.86 "Hg15 mi
8:00 pm
Tue, Jul 14
32 °FIce fog.3 mph100%29.84 "Hg1 mi
7:29 pm32 °FIce fog.3 mph100%29.83 "Hg1 mi
7:00 pm32 °FIce fog.3 mph100%29.83 "Hg1 mi
6:20 pm32 °FIce fog.5 mph100%29.82 "Hg1 mi
5:00 pm32 °FIce fog.5 mph100%29.81 "Hg1 mi
4:19 pm32 °FIce fog.3 mph100%29.81 "Hg0 mi
4:00 pm32 °FFog.3 mph100%29.80 "Hg0 mi
3:00 pm32 °FFog.6 mph100%29.80 "Hg1 mi
2:00 pm32 °FFog.8 mph100%29.78 "Hg1 mi
1:00 pm32 °FFog.7 mph100%29.78 "Hg1 mi
12:41 pm32 °FIce fog.3 mph100%29.78 "Hg1 mi
12:00 pm32 °FFog.6 mph100%29.78 "Hg1 mi
11:30 am34 °FFog.9 mph93%29.78 "Hg1 mi
11:00 am36 °FFog.7 mph93%29.77 "Hg5 mi
10:00 am34 °FFog.8 mph100%29.77 "Hg4 mi
9:00 am32 °FIce fog.7 mph100%29.77 "Hg1 mi
8:21 am32 °FIce fog.8 mph100%29.76 "Hg1 mi
8:00 am34 °FPartly sunny.7 mph93%29.76 "Hg15 mi
7:00 am34 °FBroken clouds.6 mph93%29.76 "Hg15 mi
6:00 am34 °FPartly sunny.6 mph93%29.75 "Hg10 mi
Weather by CustomWeather, © 2020

See weather overview